Messzeitpunkt;Stickstoffmonoxid;Stickstoffdioxid
23.05.2024 11:00;2,1;12,3
23.05.2024 10:00;14,5;30,9
23.05.2024 09:00;43;48,4
23.05.2024 08:00;57,9;46,4
23.05.2024 07:00;22,5;34,4
23.05.2024 06:00;7,42;27,7
23.05.2024 05:00;6,77;29,8
23.05.2024 04:00;1,95;20,9
23.05.2024 03:00;0,152;9,82
23.05.2024 02:00;0,162;13,1
23.05.2024 01:00;0,128;10,3
23.05.2024 00:00;0,0179;7,77
22.05.2024 23:00;0,448;10,2
22.05.2024 22:00;1,68;16,8
22.05.2024 21:00;3,58;19,7
22.05.2024 20:00;0,75;8,41
22.05.2024 19:00;0,988;8,47
22.05.2024 18:00;0,962;5,75
22.05.2024 17:00;0,294;5,28
22.05.2024 16:00;0,0568;3,09
22.05.2024 15:00;0,275;5,81
22.05.2024 14:00;1,71;8,69
22.05.2024 13:00;1,38;10,4
22.05.2024 12:00;1,47;12,9
22.05.2024 11:00;1,45;11,1
22.05.2024 10:00;3,78;17,3
22.05.2024 09:00;4,8;25,2
22.05.2024 08:00;20,6;39
22.05.2024 07:00;3,43;13,4
22.05.2024 06:00;0,618;7,4
22.05.2024 05:00;0,0911;3,41
22.05.2024 04:00;0,084;2,27
22.05.2024 03:00;0;2,94
22.05.2024 02:00;0,107;11
22.05.2024 01:00;0,551;11
22.05.2024 00:00;0,371;15,2
21.05.2024 23:00;0,301;16,5
21.05.2024 22:00;3,95;31,4
21.05.2024 21:00;11,8;40,5
21.05.2024 20:00;9,5;47,2
21.05.2024 19:00;7,56;32,2
21.05.2024 18:00;6,3;33,6
21.05.2024 17:00;16,5;42,3
21.05.2024 16:00;13,2;40,1
21.05.2024 15:00;14,3;42,4
21.05.2024 14:00;14,1;30,9
21.05.2024 13:00;14,9;30,8
21.05.2024 12:00;11,9;28,6
21.05.2024 11:00;18,2;29,9
21.05.2024 10:00;23,6;40
21.05.2024 09:00;33,7;40,9
21.05.2024 08:00;47,7;42,7
21.05.2024 07:00;13,6;36,9
21.05.2024 06:00;3,97;23,4
21.05.2024 05:00;3,17;18,2
21.05.2024 04:00;1,11;11,4
21.05.2024 03:00;0,947;13,2
21.05.2024 02:00;1,89;19,1
21.05.2024 01:00;0,653;24,8
21.05.2024 00:00;2,51;25,7
20.05.2024 23:00;3,06;25,3
20.05.2024 22:00;7,3;28,3
20.05.2024 21:00;4,55;20,3
20.05.2024 20:00;4,92;23,1
20.05.2024 19:00;2,27;13,4
20.05.2024 18:00;5,04;18,1
20.05.2024 17:00;4,26;18
20.05.2024 16:00;5,34;24,1
20.05.2024 15:00;3,12;19,5
20.05.2024 14:00;4,85;25,9
20.05.2024 13:00;3,71;22,2
20.05.2024 12:00;4,96;19,3
20.05.2024 11:00;7,05;23
20.05.2024 10:00;7,54;27,4
20.05.2024 09:00;1,92;16,4
20.05.2024 08:00;1,93;20,6
20.05.2024 07:00;0,45;13,8
20.05.2024 06:00;0,44;11,8
20.05.2024 05:00;1,05;20,9
20.05.2024 04:00;0,152;16,8
20.05.2024 03:00;0,501;15,9
20.05.2024 02:00;0,315;15,4
20.05.2024 01:00;1,23;17,4
20.05.2024 00:00;0,678;17,8
19.05.2024 23:00;1,04;37,1
19.05.2024 22:00;1,78;28,1
19.05.2024 21:00;2,65;22,6
19.05.2024 20:00;0,858;12,5
19.05.2024 19:00;1,16;12,7
19.05.2024 18:00;0;6,92
19.05.2024 17:00;0;2,91
19.05.2024 16:00;0,407;4,99
19.05.2024 15:00;0,272;7,7
19.05.2024 14:00;0,341;5,26
19.05.2024 13:00;0,0187;5,55
19.05.2024 12:00;0,484;7,78
19.05.2024 11:00;0,929;11,5
19.05.2024 10:00;1,07;13,6
19.05.2024 09:00;0,43;12,4
19.05.2024 08:00;0,566;15
19.05.2024 07:00;0,0162;10,9
19.05.2024 06:00;0,248;11,6
19.05.2024 05:00;0;7,67
19.05.2024 04:00;0,0164;11,8
19.05.2024 03:00;0,667;23,4
19.05.2024 02:00;2,63;30,3
19.05.2024 01:00;5,96;37,8
19.05.2024 00:00;5,47;39,1
18.05.2024 23:00;3,12;23,9
18.05.2024 22:00;4,44;23,4
18.05.2024 21:00;4,96;21
18.05.2024 20:00;7,19;20,1
18.05.2024 19:00;3,87;17,3
18.05.2024 18:00;2,56;16,9
18.05.2024 17:00;6,45;27,5
18.05.2024 16:00;6,15;32,6
18.05.2024 15:00;4,07;30,3
18.05.2024 14:00;3,96;18,9
18.05.2024 13:00;4,54;19,8
18.05.2024 12:00;6,25;21,6
18.05.2024 11:00;7,5;22,7
18.05.2024 10:00;17,7;27,6
18.05.2024 09:00;32,5;32,1
18.05.2024 08:00;16,7;31,4
18.05.2024 07:00;9,99;29
18.05.2024 06:00;12,4;35,9
18.05.2024 05:00;8,22;39,2
18.05.2024 04:00;6,02;40,6
18.05.2024 03:00;3,1;35,5
18.05.2024 02:00;6,37;45,6
18.05.2024 01:00;6,51;47,3
18.05.2024 00:00;11,4;50,2
17.05.2024 23:00;13,3;55,1
17.05.2024 22:00;10,2;43,5
17.05.2024 21:00;7,44;35,2
17.05.2024 20:00;15,3;50,3
17.05.2024 19:00;21;55,4
17.05.2024 18:00;16,5;45,3
17.05.2024 17:00;18;46,2
17.05.2024 16:00;16,6;37,9
17.05.2024 15:00;19,4;42,3
17.05.2024 14:00;17,2;40,1
17.05.2024 13:00;15,9;37,6
17.05.2024 12:00;25,8;39,7
17.05.2024 11:00;24,7;34,2
17.05.2024 10:00;27,1;40,5
17.05.2024 09:00;18,9;33,4
17.05.2024 08:00;34;37,1
17.05.2024 07:00;9,62;26,2
17.05.2024 06:00;3,38;23,8
17.05.2024 05:00;4,52;26,1
17.05.2024 04:00;1,88;21,8
17.05.2024 03:00;1,76;19,4
17.05.2024 02:00;3,4;22,3
17.05.2024 01:00;7,53;27,7
17.05.2024 00:00;5,46;30
16.05.2024 23:00;8,14;31,7
16.05.2024 22:00;7,8;26,6
16.05.2024 21:00;9,81;34,9
16.05.2024 20:00;14,7;39,5
16.05.2024 19:00;25,5;53,5
16.05.2024 18:00;5,09;21,5
16.05.2024 17:00;7,66;21,8
16.05.2024 16:00;10,1;19,8
16.05.2024 15:00;4,86;19,1
16.05.2024 14:00;6,24;16,9
16.05.2024 13:00;9,39;23,5
16.05.2024 12:00;17;31,9
16.05.2024 11:00;25,1;29,2
16.05.2024 10:00;28,7;33
16.05.2024 09:00;37,9;39,3
16.05.2024 08:00;58,1;40,3
16.05.2024 07:00;16,4;26,5
16.05.2024 06:00;5,14;19,8
16.05.2024 05:00;3,95;17,3
16.05.2024 04:00;5,79;20,2
16.05.2024 03:00;2,09;20
16.05.2024 02:00;2,82;23,5
16.05.2024 01:00;3,25;30,5
16.05.2024 00:00;6,57;40,4
15.05.2024 23:00;2,99;33
15.05.2024 22:00;3,45;30,3
15.05.2024 21:00;3,59;33,6
15.05.2024 20:00;2,89;30,1
15.05.2024 19:00;1,84;22
15.05.2024 18:00;0,635;18,8
15.05.2024 17:00;2,32;20,5
15.05.2024 16:00;5,39;22,1
15.05.2024 15:00;7,24;20,7
15.05.2024 14:00;5,5;20,8
15.05.2024 13:00;13,6;32,7
15.05.2024 12:00;9,34;29,3
15.05.2024 11:00;26,8;41,5
15.05.2024 10:00;32,5;41,2
15.05.2024 09:00;56,2;41,4
15.05.2024 08:00;58,5;39,7
15.05.2024 07:00;22,1;30,3
15.05.2024 06:00;2,6;17,1
15.05.2024 05:00;0,299;14,3
15.05.2024 04:00;0,407;8,9
15.05.2024 03:00;0;4,65
15.05.2024 02:00;0,101;8,16
15.05.2024 01:00;0,408;15,3
15.05.2024 00:00;2,23;27,1
14.05.2024 23:00;7,16;46,8
14.05.2024 22:00;4,62;25,1
14.05.2024 21:00;5,26;21,9
14.05.2024 20:00;11,3;29,7
14.05.2024 19:00;6,54;24,1
14.05.2024 18:00;10,1;32,4
14.05.2024 17:00;10,9;35,5
14.05.2024 16:00;5,54;21,6
14.05.2024 15:00;6,71;23,6
14.05.2024 14:00;15,5;33,8
14.05.2024 13:00;14,8;33,5
14.05.2024 12:00;13,8;31,9
14.05.2024 11:00;19,5;31,8
14.05.2024 10:00;16,9;34,9
14.05.2024 09:00;18,7;42,6
14.05.2024 08:00;30,1;54,4
14.05.2024 07:00;13,1;28
14.05.2024 06:00;6,85;24
14.05.2024 05:00;2,93;19,8
14.05.2024 04:00;3,6;15,7
14.05.2024 03:00;3,79;23,4
14.05.2024 02:00;4,46;23,3
14.05.2024 01:00;2,92;25,4
14.05.2024 00:00;13;40,7
13.05.2024 23:00;12;48,5
13.05.2024 22:00;4,41;35,2
13.05.2024 21:00;5,22;28,1
13.05.2024 20:00;4,8;25,4
13.05.2024 19:00;2,35;22,2
13.05.2024 18:00;4,14;24,1
13.05.2024 17:00;3,4;24,8
13.05.2024 16:00;9,02;24,6
13.05.2024 15:00;6,55;23,3
13.05.2024 14:00;10,4;35,3
13.05.2024 13:00;10,5;33,2
13.05.2024 12:00;18,4;41,6
13.05.2024 11:00;31,8;49,6
13.05.2024 10:00;51;45,7
13.05.2024 09:00;48,6;61,5
13.05.2024 08:00;26,7;55,5
13.05.2024 07:00;9,56;38,7
13.05.2024 06:00;3,67;16,8
13.05.2024 05:00;1,01;17,6
13.05.2024 04:00;0,17;10,5
13.05.2024 03:00;0,0906;4,25
13.05.2024 02:00;1,88;10,5
13.05.2024 01:00;1,74;15,7
13.05.2024 00:00;3,2;27,9
12.05.2024 23:00;7,25;38
12.05.2024 22:00;7,35;27,6
12.05.2024 21:00;3,85;15,3
12.05.2024 20:00;5,99;21,1
12.05.2024 19:00;3,47;20,1
12.05.2024 18:00;4,7;17
12.05.2024 17:00;5,61;17,6
12.05.2024 16:00;5,65;18,4
12.05.2024 15:00;3,14;14
12.05.2024 14:00;3,69;13,6
12.05.2024 13:00;3,09;15,1
12.05.2024 12:00;1,97;10
12.05.2024 11:00;2,02;9,49
12.05.2024 10:00;1,59;11,6
12.05.2024 09:00;5,08;29,9
12.05.2024 08:00;2,33;23,1
12.05.2024 07:00;2,07;28,3
12.05.2024 06:00;1,88;31
12.05.2024 05:00;0,214;14,3
12.05.2024 04:00;1,91;18,1
12.05.2024 03:00;1,34;13,6
12.05.2024 02:00;1,64;12,7
12.05.2024 01:00;1,6;10,8
12.05.2024 00:00;0,986;17,7
11.05.2024 23:00;3,08;24,4
11.05.2024 22:00;2,33;18,5
11.05.2024 21:00;3,26;15,1
11.05.2024 20:00;3,02;16,4
11.05.2024 19:00;3,22;16,3
11.05.2024 18:00;2,67;16,8
11.05.2024 17:00;3,72;16,1
11.05.2024 16:00;4,12;19,6
11.05.2024 15:00;3,58;17,4
11.05.2024 14:00;5,69;20,3
11.05.2024 13:00;8,8;24,2
11.05.2024 12:00;9,16;29,7
11.05.2024 11:00;9,84;31,4
11.05.2024 10:00;15,1;39,1
11.05.2024 09:00;9,91;35,4
11.05.2024 08:00;14;41,2
11.05.2024 07:00;7,05;34,1
11.05.2024 06:00;3,4;29,6
11.05.2024 05:00;2,27;24,4
11.05.2024 04:00;1,48;27,9
11.05.2024 03:00;1,68;42,3
11.05.2024 02:00;3,97;43,9
11.05.2024 01:00;6,7;57,1
11.05.2024 00:00;6,62;41,3
10.05.2024 23:00;3,65;31,2
10.05.2024 22:00;5,06;35,6
10.05.2024 21:00;6,01;38,1
10.05.2024 20:00;6,17;34,1
10.05.2024 19:00;7,11;36
10.05.2024 18:00;5,62;30,8
10.05.2024 17:00;6,31;28,2
10.05.2024 16:00;3,8;23,3
10.05.2024 15:00;6,45;26,3
10.05.2024 14:00;10,1;22,7
10.05.2024 13:00;13;26,9
10.05.2024 12:00;8,85;27,7
10.05.2024 11:00;22,9;38,3
10.05.2024 10:00;27,3;41,8
10.05.2024 09:00;30,1;38,9
10.05.2024 08:00;25,3;40,4
10.05.2024 07:00;10,5;29,7
10.05.2024 06:00;2,13;24,3
10.05.2024 05:00;2,06;22,5
10.05.2024 04:00;0,942;17,7
10.05.2024 03:00;0,368;19,2
10.05.2024 02:00;0,754;21,1
10.05.2024 01:00;2,88;29,7
10.05.2024 00:00;4,32;38,1
09.05.2024 23:00;4,11;37,8
09.05.2024 22:00;4,08;34,1
09.05.2024 21:00;2,06;26,5
09.05.2024 20:00;2,33;27,4
09.05.2024 19:00;2,36;26,8
09.05.2024 18:00;3,38;22,9
09.05.2024 17:00;4,4;29,2
09.05.2024 16:00;2,58;16,2
09.05.2024 15:00;2,53;17
09.05.2024 14:00;4,54;22,8
09.05.2024 13:00;6,55;27,3
09.05.2024 12:00;3,64;18,2
09.05.2024 11:00;6,03;18,2
09.05.2024 10:00;7,1;21,7
09.05.2024 09:00;11,3;25,6
09.05.2024 08:00;7,6;29,8
09.05.2024 07:00;4,1;33,2
09.05.2024 06:00;2,72;31,7
09.05.2024 05:00;2,22;26,4
09.05.2024 04:00;2,22;28,1
09.05.2024 03:00;5,49;34,4
09.05.2024 02:00;2,89;24,9
09.05.2024 01:00;3,67;27,1
09.05.2024 00:00;2,94;27,9
08.05.2024 23:00;4,05;24,5
08.05.2024 22:00;2,17;22,1
08.05.2024 21:00;2,41;23,3
08.05.2024 20:00;6,12;28
08.05.2024 19:00;18,5;34,2
08.05.2024 18:00;11,8;28,8
08.05.2024 17:00;9,34;24,5
08.05.2024 16:00;13,1;25,6
08.05.2024 15:00;16;31,5
08.05.2024 13:00;17,5;39
08.05.2024 12:00;26,4;43,3
08.05.2024 11:00;22,9;42,9
08.05.2024 10:00;28,6;47,8
08.05.2024 09:00;12,4;42,5
08.05.2024 08:00;20,2;40,7
08.05.2024 07:00;9,76;24,4
08.05.2024 06:00;4,58;23
08.05.2024 05:00;3,58;22,5
08.05.2024 04:00;1,75;20,4
08.05.2024 03:00;3,57;26,6
08.05.2024 02:00;5,41;35,1
08.05.2024 01:00;5,05;40
08.05.2024 00:00;8,35;41,6
07.05.2024 23:00;9,27;39,6
07.05.2024 22:00;12,3;53,4
07.05.2024 21:00;9,75;52,3
07.05.2024 20:00;10,8;48,2
07.05.2024 19:00;22,5;57,3
07.05.2024 18:00;26,4;50,4
07.05.2024 17:00;21,4;55,9
07.05.2024 16:00;19,2;47
07.05.2024 15:00;12,3;38,7
07.05.2024 14:00;18,5;39
07.05.2024 13:00;20,6;37,7
07.05.2024 12:00;19,7;36,1
07.05.2024 11:00;26,1;44,3
07.05.2024 10:00;40;51,7
07.05.2024 09:00;30,5;58,1
07.05.2024 08:00;48,7;57,8
07.05.2024 07:00;19,2;39,4
07.05.2024 06:00;3,81;23,5
07.05.2024 05:00;2,44;22,1
07.05.2024 04:00;2,38;27,1
07.05.2024 03:00;1,83;23,9
07.05.2024 02:00;2,91;21,6
07.05.2024 01:00;4,27;32,6
07.05.2024 00:00;8,52;47,2
06.05.2024 23:00;11,9;50,6
06.05.2024 22:00;11,9;47,3
06.05.2024 21:00;15,5;52,3
06.05.2024 20:00;19,2;60,6
06.05.2024 19:00;21,5;50
06.05.2024 18:00;20,9;47,5
06.05.2024 17:00;26,7;54,8
06.05.2024 16:00;12,2;37,6
06.05.2024 15:00;13,1;29,1
06.05.2024 14:00;20,4;36,1
06.05.2024 13:00;22,4;37,9
06.05.2024 12:00;21,7;40,9
06.05.2024 11:00;25,5;42,6
06.05.2024 10:00;37,7;60,2
06.05.2024 09:00;31,1;53,4
06.05.2024 08:00;33,2;54,1
06.05.2024 07:00;12,6;35,8
06.05.2024 06:00;5,42;26,6
06.05.2024 05:00;5,01;26
06.05.2024 04:00;2,46;19,1
06.05.2024 03:00;3,91;23,8
06.05.2024 02:00;7,06;47,5
06.05.2024 01:00;6,62;44,8
06.05.2024 00:00;7,47;35
05.05.2024 23:00;10,2;44
05.05.2024 22:00;10,2;39,1
05.05.2024 21:00;6,58;23,8
05.05.2024 20:00;4,55;20,6
05.05.2024 19:00;5,3;15,6
05.05.2024 18:00;3,96;12,1
05.05.2024 17:00;4,14;12,9
05.05.2024 16:00;2,64;10,9
05.05.2024 15:00;1,91;8,89
05.05.2024 14:00;1,76;6,4
05.05.2024 13:00;1,52;7,05
05.05.2024 12:00;1,86;6,26
05.05.2024 11:00;1,69;7,35
05.05.2024 10:00;1,32;6,88
05.05.2024 09:00;1,19;7,02
05.05.2024 08:00;1,09;7,36
05.05.2024 07:00;1,1;7,16
05.05.2024 06:00;0,765;10,4
05.05.2024 05:00;1,56;20,2
05.05.2024 04:00;3,26;23,9
05.05.2024 03:00;8,69;27
05.05.2024 02:00;9,73;28,8
05.05.2024 01:00;10,6;35,1
05.05.2024 00:00;9;31,8
04.05.2024 23:00;10,2;47
04.05.2024 22:00;4,39;43,5
04.05.2024 21:00;7,4;37,5
04.05.2024 20:00;7,89;34,2
04.05.2024 19:00;4,69;18,5
04.05.2024 18:00;10,7;19,7
04.05.2024 17:00;8,43;18,8
04.05.2024 16:00;10,1;19,3
04.05.2024 15:00;12,3;23,5
04.05.2024 14:00;13,6;23,7
04.05.2024 13:00;16,5;30,8
04.05.2024 12:00;18,2;31,6
04.05.2024 11:00;14,8;27,8
04.05.2024 10:00;14;25,9
04.05.2024 09:00;14,9;25,4
04.05.2024 08:00;23,4;32,9
04.05.2024 07:00;17,8;27,4
04.05.2024 06:00;6,71;20,7
04.05.2024 05:00;8,88;26,4
04.05.2024 04:00;6,94;24,8
04.05.2024 03:00;6,66;28,6
04.05.2024 02:00;11,3;33,5
04.05.2024 01:00;18,6;40,5
04.05.2024 00:00;28,9;55,8
03.05.2024 23:00;31,5;65,4
03.05.2024 22:00;15,8;44,9
03.05.2024 21:00;20,9;47,4
03.05.2024 20:00;14,1;46,6
03.05.2024 19:00;3,94;21,6
03.05.2024 18:00;2,7;16,3
03.05.2024 17:00;2,15;14
03.05.2024 16:00;2,58;14,5
03.05.2024 15:00;2,68;12,6
03.05.2024 14:00;3,95;15,7
03.05.2024 13:00;3,18;15,5
03.05.2024 12:00;3,94;16,4
03.05.2024 11:00;4,75;17,8
03.05.2024 10:00;9,72;30,4
03.05.2024 09:00;10,5;36,5
03.05.2024 08:00;5,17;18,4
03.05.2024 07:00;3,59;9,94
03.05.2024 06:00;0,925;6,62
03.05.2024 05:00;1,06;7,45
03.05.2024 04:00;1,16;8,24
03.05.2024 03:00;1,11;12,5
03.05.2024 02:00;1,74;15
03.05.2024 01:00;1,39;14,7
03.05.2024 00:00;2,28;24,4
02.05.2024 23:00;2,67;29,5
02.05.2024 22:00;2,35;27,6
02.05.2024 21:00;4,86;36,5
02.05.2024 20:00;8,32;53,7
02.05.2024 19:00;17,1;77,8
02.05.2024 18:00;41,9;94,8
02.05.2024 17:00;7,05;35,6
02.05.2024 16:00;6,37;30,8
02.05.2024 15:00;5,97;25,9
02.05.2024 14:00;13,8;32,2
02.05.2024 13:00;27,9;42,3
02.05.2024 12:00;19;42,1
02.05.2024 11:00;18,8;51,5
02.05.2024 10:00;72,1;70,8
02.05.2024 09:00;71,4;60,2
02.05.2024 08:00;61,8;50,9
02.05.2024 07:00;12,7;35,3
02.05.2024 06:00;6,66;29,7
02.05.2024 05:00;4,03;31,7
02.05.2024 04:00;3,22;28,8
02.05.2024 03:00;4,02;36,4
02.05.2024 02:00;5,2;36,2
02.05.2024 01:00;3,95;34
02.05.2024 00:00;4,79;26,8
01.05.2024 23:00;4,88;28,2
01.05.2024 22:00;7,85;30
01.05.2024 21:00;7,52;48,3
01.05.2024 20:00;5,53;30,7
01.05.2024 19:00;5,25;24,5
01.05.2024 18:00;2,97;22,7
01.05.2024 17:00;3,55;18,4
01.05.2024 16:00;3,12;25
01.05.2024 15:00;5,64;29,5
01.05.2024 14:00;8,81;31,5
01.05.2024 13:00;8,82;35,1
01.05.2024 12:00;8,15;30,6
01.05.2024 11:00;6,02;28
01.05.2024 10:00;9,69;33,8
01.05.2024 09:00;6,1;32,5
01.05.2024 08:00;3,3;29,6
01.05.2024 07:00;1,62;32,6
01.05.2024 06:00;3,37;38,1
01.05.2024 05:00;4,26;54,4
01.05.2024 04:00;3,26;33,3
01.05.2024 03:00;5,45;29,5
01.05.2024 02:00;3,14;34,4
01.05.2024 01:00;8,2;63,6
01.05.2024 00:00;4,51;61,9
30.04.2024 23:00;10,4;75,7
30.04.2024 22:00;11,4;75
30.04.2024 21:00;14,9;69,8
30.04.2024 20:00;8,79;50,8
30.04.2024 19:00;10,5;47,9
30.04.2024 18:00;14,5;48,2
29.04.2024 13:00;15,8;33,7
29.04.2024 12:00;19,7;35,6
29.04.2024 11:00;28,3;44,3
29.04.2024 10:00;48,2;53,7
29.04.2024 09:00;66;59,1
29.04.2024 08:00;38,6;53,3
29.04.2024 07:00;24,6;45,6
29.04.2024 06:00;6,83;31,7
29.04.2024 05:00;3,51;19,6
29.04.2024 04:00;1,99;13,5
29.04.2024 03:00;3,86;16,1
29.04.2024 02:00;2,5;26,5
29.04.2024 01:00;1,78;25,1
29.04.2024 00:00;2,51;26,1
28.04.2024 23:00;4,17;28,2
28.04.2024 22:00;2,04;15,1
28.04.2024 21:00;1,32;10
28.04.2024 20:00;1,11;8,78
28.04.2024 19:00;2,88;15,2
28.04.2024 18:00;3,73;16
28.04.2024 17:00;1,92;12,1
28.04.2024 16:00;2,68;13,2
28.04.2024 15:00;3,03;9,7
28.04.2024 14:00;2,2;9,08
28.04.2024 13:00;1,92;7,77
28.04.2024 12:00;2,41;8,31
28.04.2024 11:00;2,57;13,1
28.04.2024 10:00;1,5;7,71
28.04.2024 09:00;2,37;13,5
28.04.2024 08:00;3,95;29,9
28.04.2024 07:00;2,94;30,4
28.04.2024 06:00;4,61;27,7
28.04.2024 05:00;4,06;24,4
28.04.2024 04:00;4,44;38,1
28.04.2024 03:00;6,79;50,3
28.04.2024 02:00;6,31;36,1
28.04.2024 01:00;8,41;44,2
28.04.2024 00:00;12,8;52,8
27.04.2024 23:00;4,46;36,5
27.04.2024 22:00;11,3;45,9
27.04.2024 21:00;13,7;47,5
27.04.2024 20:00;10,8;38,5
27.04.2024 19:00;7,15;24,3
27.04.2024 18:00;6,98;23,7
27.04.2024 17:00;7,36;20
27.04.2024 16:00;10,8;24,4
27.04.2024 15:00;12,4;23,4
27.04.2024 14:00;15,2;26,9
27.04.2024 13:00;14,7;25,3
27.04.2024 12:00;14,3;27,1
27.04.2024 11:00;12,8;25,6
27.04.2024 10:00;10,9;22,6
27.04.2024 09:00;11;25,3
27.04.2024 08:00;13,9;31,9
27.04.2024 07:00;8,46;29
27.04.2024 06:00;9,13;32,1
27.04.2024 05:00;4,58;34,4
27.04.2024 04:00;5,51;41,5
27.04.2024 03:00;5,29;38,2
27.04.2024 02:00;9,77;40,9
27.04.2024 01:00;8;38,2
27.04.2024 00:00;9,97;39,8
26.04.2024 23:00;9,47;43,8
26.04.2024 22:00;15,4;53,4
26.04.2024 21:00;13,4;47
26.04.2024 20:00;11,7;38,1
26.04.2024 19:00;11,3;32,3
26.04.2024 18:00;8,81;27,9
26.04.2024 17:00;7,09;27,5
26.04.2024 16:00;7,58;25,5
26.04.2024 15:00;7,53;26,8
26.04.2024 14:00;5,02;24,9
26.04.2024 13:00;4,33;24,2
26.04.2024 12:00;5,74;23,9
26.04.2024 11:00;9,86;33,6
26.04.2024 10:00;22,8;45,4
26.04.2024 09:00;28;57,8
26.04.2024 08:00;39,4;58,5
26.04.2024 07:00;15,3;39,6
26.04.2024 06:00;3,21;31,2
26.04.2024 05:00;3,64;30,4
26.04.2024 04:00;2,61;15,8
26.04.2024 03:00;1,52;12,9
26.04.2024 02:00;1,98;17,4
26.04.2024 01:00;2,32;22,6
26.04.2024 00:00;3,31;18,7
25.04.2024 23:00;1,94;15,3
25.04.2024 22:00;1,59;14,9
25.04.2024 21:00;1,9;13,6
25.04.2024 20:00;3,78;20,1
25.04.2024 19:00;4,61;19,5
25.04.2024 18:00;3,23;17,2
25.04.2024 17:00;3,03;11,9
25.04.2024 16:00;2,64;13,4
25.04.2024 15:00;3,68;14,7
25.04.2024 14:00;3,04;14,3
25.04.2024 13:00;3,83;15,4
25.04.2024 12:00;4,74;18,2
25.04.2024 11:00;4,51;21,6
25.04.2024 10:00;4,18;24,1
25.04.2024 09:00;4,22;29,9
25.04.2024 08:00;8,14;26,9
25.04.2024 07:00;6,89;17,7
25.04.2024 06:00;2,37;11,8
25.04.2024 05:00;1,56;8,8
25.04.2024 04:00;0,875;8,77
25.04.2024 03:00;1,36;12,3
25.04.2024 02:00;2,03;13,9
25.04.2024 01:00;1,63;14,3
25.04.2024 00:00;2,99;18,6
24.04.2024 23:00;2,44;18,8
24.04.2024 22:00;2,32;19,1
24.04.2024 21:00;2,52;18
24.04.2024 20:00;4,49;23,7
24.04.2024 19:00;5,63;20,3
24.04.2024 18:00;3,81;12,9
24.04.2024 17:00;8,25;22,9
24.04.2024 16:00;3,96;13,3
24.04.2024 15:00;5,07;15
24.04.2024 14:00;4,54;15,7
24.04.2024 13:00;5,99;18,7
24.04.2024 12:00;5,42;18,4
24.04.2024 11:00;8,39;18,4
24.04.2024 10:00;6,64;24
24.04.2024 09:00;7,34;25,1
24.04.2024 08:00;8,06;23,7
24.04.2024 07:00;4,94;19,9
24.04.2024 06:00;2,72;12,4
24.04.2024 05:00;1,04;11,3
24.04.2024 04:00;1,97;12,9
24.04.2024 03:00;0,654;11
24.04.2024 02:00;0,762;11
24.04.2024 01:00;1,3;14,1
24.04.2024 00:00;1,77;26,1
23.04.2024 23:00;3,92;25,5
23.04.2024 22:00;3,62;25,2
23.04.2024 21:00;3,34;22
23.04.2024 20:00;4,43;21,2
23.04.2024 19:00;6,97;26,5
23.04.2024 18:00;8,61;28,5
23.04.2024 17:00;7,44;28,2
23.04.2024 16:00;11,8;34,2
23.04.2024 15:00;10,6;31,2
23.04.2024 14:00;13,7;35,2
23.04.2024 13:00;10,8;27,1
23.04.2024 12:00;13,5;39,3
23.04.2024 11:00;46,6;66,8
23.04.2024 10:00;65,9;68,5
23.04.2024 09:00;88,5;73,1
23.04.2024 08:00;74,1;73,4
23.04.2024 07:00;22,6;56,5
23.04.2024 06:00;6,38;40,4
23.04.2024 05:00;4,46;37,3
23.04.2024 04:00;4,33;35,8
23.04.2024 03:00;4,64;47,2
23.04.2024 02:00;4,38;47,2
23.04.2024 01:00;5,05;52,2
23.04.2024 00:00;9,51;54
22.04.2024 23:00;7,86;42,3
22.04.2024 22:00;10,4;45
22.04.2024 21:00;11,9;43,9
22.04.2024 20:00;11,6;39,6
22.04.2024 19:00;33,5;49,9
22.04.2024 18:00;18,7;37
22.04.2024 17:00;23;41,4
22.04.2024 16:00;15,7;33
22.04.2024 15:00;25;48,4
22.04.2024 14:00;12;30,3
22.04.2024 13:00;15,1;33,1
22.04.2024 12:00;18,1;33,5
22.04.2024 11:00;28;41,6
22.04.2024 10:00;61,4;59
22.04.2024 09:00;50,1;54,4
22.04.2024 08:00;45,5;54,6
22.04.2024 07:00;13,5;43,1
22.04.2024 06:00;6,89;32,1
22.04.2024 05:00;3,17;22,6
22.04.2024 04:00;2,53;18,2
22.04.2024 03:00;2,39;21,2
22.04.2024 02:00;4,76;39,3
22.04.2024 01:00;7,89;49,1
22.04.2024 00:00;14,2;49,5
21.04.2024 23:00;8,47;36,8
21.04.2024 22:00;9,22;25,9
21.04.2024 21:00;6,15;16,3
21.04.2024 20:00;4,93;13,5
21.04.2024 19:00;6,24;16,3
21.04.2024 18:00;7,09;16,1
21.04.2024 17:00;5,29;13,1
21.04.2024 16:00;8,24;15,4
21.04.2024 15:00;6,23;13,8
21.04.2024 14:00;6,41;13
21.04.2024 13:00;6,16;13,8
21.04.2024 12:00;4,96;13,8
21.04.2024 11:00;6,02;21
21.04.2024 10:00;4,43;18,8
21.04.2024 09:00;3,71;17,1
21.04.2024 08:00;1,15;14,8
21.04.2024 07:00;1,19;11,5
21.04.2024 06:00;1,04;8,15
21.04.2024 05:00;0,996;9,64
21.04.2024 04:00;0,975;8,93
21.04.2024 03:00;1,71;14,1
21.04.2024 02:00;4,04;17,3
21.04.2024 01:00;6,07;21,6
21.04.2024 00:00;4,2;17,1
20.04.2024 23:00;2,96;19,9
20.04.2024 22:00;3,57;20,8
20.04.2024 21:00;2,93;17,7
20.04.2024 20:00;4,88;23,7
20.04.2024 19:00;4,87;20,2
20.04.2024 18:00;4,77;18,4
20.04.2024 17:00;6,13;17,3
20.04.2024 16:00;4,9;14
20.04.2024 15:00;8,54;23,1
20.04.2024 14:00;8,43;21,4
20.04.2024 13:00;9,15;30,1
20.04.2024 12:00;6,69;22,5
20.04.2024 11:00;6,47;19,8
20.04.2024 10:00;4,22;17,6
20.04.2024 09:00;3,95;20,2
20.04.2024 08:00;2,35;13,3
20.04.2024 07:00;1,6;11
20.04.2024 06:00;1,89;11,7
20.04.2024 05:00;0,764;7,71
20.04.2024 04:00;1,56;7,53
20.04.2024 03:00;2,4;8,89
20.04.2024 02:00;1,35;8,86
20.04.2024 01:00;2,13;12,9
20.04.2024 00:00;2,31;12,1
19.04.2024 23:00;1,91;10,8
19.04.2024 22:00;3,07;12,8
19.04.2024 21:00;2,37;10,6
19.04.2024 20:00;5,86;18,2
19.04.2024 19:00;6,1;17,3
19.04.2024 18:00;6,85;16,9
19.04.2024 17:00;6,6;20,1
19.04.2024 16:00;7,45;23,3
19.04.2024 15:00;5,91;19,9
19.04.2024 14:00;7,03;24,7
19.04.2024 13:00;8,67;30,6
19.04.2024 12:00;4,22;26,6
19.04.2024 11:00;2,8;21,1
19.04.2024 10:00;2,22;20,6
19.04.2024 09:00;2,78;17,7
19.04.2024 08:00;3,19;15,8
19.04.2024 07:00;1,21;11,1
19.04.2024 06:00;1,24;9,56
19.04.2024 05:00;1,12;8,38
19.04.2024 04:00;1,07;14,4
19.04.2024 03:00;0,696;15,8
19.04.2024 02:00;0,956;22,1
19.04.2024 01:00;1,88;19,1
19.04.2024 00:00;2,29;24,4
18.04.2024 23:00;4,26;26,6
18.04.2024 22:00;4,17;24
18.04.2024 21:00;4,2;24,6
18.04.2024 20:00;3,35;18,9
18.04.2024 19:00;4,85;23,9
18.04.2024 18:00;7,52;21,3
18.04.2024 17:00;7,69;21,9
18.04.2024 16:00;10,9;23,7
18.04.2024 15:00;12,3;26,5
18.04.2024 14:00;14;33,2
18.04.2024 13:00;18,9;38,4
18.04.2024 12:00;20,8;38,4
18.04.2024 11:00;36,5;47,9
18.04.2024 10:00;26,2;44,9
18.04.2024 09:00;31,4;55
18.04.2024 08:00;47,3;54,3
18.04.2024 07:00;13,6;35,8
18.04.2024 06:00;6,28;24,5
18.04.2024 05:00;2,66;32,9
18.04.2024 04:00;2,66;29,7
18.04.2024 03:00;4,52;31
18.04.2024 02:00;3,07;29
18.04.2024 01:00;4,24;25,4
18.04.2024 00:00;11;37,3
17.04.2024 23:00;11,9;43,2
17.04.2024 22:00;14,1;38,1
17.04.2024 21:00;10,6;38,5
17.04.2024 20:00;8,62;30,1
17.04.2024 19:00;7,26;24,4
17.04.2024 18:00;7,46;20,4
17.04.2024 17:00;23,2;42,3
17.04.2024 16:00;9,48;32,4
17.04.2024 15:00;8,39;20
17.04.2024 14:00;11;28,6
17.04.2024 13:00;14,7;37,4
17.04.2024 12:00;14,9;41,3
17.04.2024 11:00;8,83;26,9
17.04.2024 10:00;12,7;37,5
17.04.2024 09:00;18,5;42,4
17.04.2024 08:00;38,5;54,6
17.04.2024 07:00;17,3;30,8
17.04.2024 06:00;2,64;16,5
17.04.2024 05:00;1,11;10,3
17.04.2024 04:00;1,04;13,3
17.04.2024 03:00;1,2;20,5
17.04.2024 02:00;4,17;25,6
17.04.2024 01:00;4,21;42,1
17.04.2024 00:00;3,89;25,9
16.04.2024 23:00;4,71;32,2
16.04.2024 22:00;3,74;28,2
16.04.2024 21:00;5,01;39,2
16.04.2024 20:00;10,2;48,1
16.04.2024 19:00;6,19;26,9
16.04.2024 18:00;7,37;28,9
16.04.2024 17:00;4,41;18,4
16.04.2024 16:00;4,36;18,3
16.04.2024 15:00;4,34;14,4
16.04.2024 14:00;5,51;17,4
16.04.2024 13:00;2,89;14,8
16.04.2024 12:00;1,77;16,1
16.04.2024 11:00;1,9;15,1
16.04.2024 10:00;3,5;17,2
16.04.2024 09:00;3,57;15,4